Location: Unspecified
(39.4453°N, 0.0000°E)
Time: 13:54:32
(UTC+00:00)

HODOYOSHI 4 - Visible Passes

Search period start: 04 April 2026 00:00
Search period end: 14 April 2026 00:00
Orbit: 588 x 620 km, 97.5° (Epoch: 29 March)

Date Brightness Start Highest point End Pass type
(mag) Time Alt. Az. Time Alt. Az. Time Alt. Az.
4 Apr ? 04:55:12 10° SE 04:59:06 34° ENE 05:03:01 10° N visible
5 Apr ? 05:07:20 10° SSE 05:11:29 48° ENE 05:15:38 10° N visible
7 Apr ? 18:53:41 10° N 18:57:33 36° WNW 19:01:22 10° SW visible
8 Apr ? 04:11:51 10° E 04:13:25 12° ENE 04:14:59 10° NE visible
8 Apr ? 19:06:21 10° NNW 19:09:53 27° WNW 19:13:23 10° SW visible
9 Apr ? 04:23:05 10° ESE 04:25:41 16° ENE 04:28:18 10° NNE visible
9 Apr ? 19:19:08 10° NNW 19:22:11 20° WNW 19:25:13 10° WSW visible
10 Apr ? 04:34:44 10° ESE 04:37:59 21° ENE 04:41:14 10° NNE visible
10 Apr ? 19:32:08 10° NNW 19:34:28 15° WNW 19:36:48 10° W visible
11 Apr ? 04:46:37 10° SE 04:50:18 28° ENE 04:53:59 10° N visible
11 Apr ? 19:45:41 10° NW 19:46:43 11° WNW 19:47:46 10° WNW visible
